User: anonymous   Login
Location: Unspecified
(0.0000°N, 0.0000°E)
Time: 22:20:15
(UTC+00:00)
Language:

RESURS DK-1 - Orbit

View from above orbital plane
View from above orbital plane
View from above satellite
View from above satellite

Ground track
Ground track

The orbit data is extracted from the following two-line orbital elements,

1 29228U 06021A   14354.39058768  .00001831  00000-0  15025-3 0  5349
2 29228 069.9391 251.3828 0007841 282.1797 077.8482 15.01097328471517
Epoch (UTC): 20 December 2014 09:22:26
Eccentricity: 0.0007841
inclination: 69.9391°
perigee height: 558 km
apogee height: 569 km
right ascension of ascending node: 251.3828°
argument of perigee: 282.1797°
revolutions per day: 15.01097328
mean anomaly at epoch: 77.8482°
orbit number at epoch: 47151

The dashed part of the orbit path shows where the satellite is in the earth's shadow,  

DLR